Flag for Norway Weather past 2 weeks in Askim, Norway

Now
36 °F

Light rain. Low clouds.


Feels Like: 27 °F
Forecast: 29 / 39 °F
Wind: 14 mph from Southeast

Location: Rygge

Current Time: Mar 29, 2015 at 5:47:47 AM

Latest Report: Mar 29, 2015 at 4:50 AM


Visibility: 2 mi

Pressure: 29.24 "Hg

Humidity: 100%

Dew point: 36 °F

Location of AskimLocation

Historic Weather in Askim — Graph

°F

Askim temperature yesterday

Maximum temperature yesterday: 43 °F (at 12:50 PM)
Minimum temperature yesterday: 25 °F (at 5:20 AM)
Average temperature yesterday: 34 °F

Past Weeks' High & Low Weather Summary

 TemperatureHumidityPressure
High52 °F (Mar 24, 1:20 PM)100% (Mar 18, 10:50 AM)30.86 "Hg (Mar 18, 10:50 AM)
Low25 °F (Mar 14, 3:20 AM)28% (Mar 21, 4:50 PM)29.27 "Hg (Mar 29, 4:20 AM)
Average37 °F79%30.20 "Hg
* Reported Mar 14 3:20 AM — Mar 29 4:20 AM, Askim, Weather by CustomWeather, © 2015

Note: Actual official high and low records may vary slightly from our data, if they occured in-between our weather recording intervals... More about our weather records

Advertising

Askim weather history for previous 24 hours

 ConditionsComfort  
Time TempWeatherWind HumidityBarometerVisibility
4:20 AM
Sun, Mar 29
36 °FLight rain. Low clouds.15 mph93%29.27 "Hg2 mi
3:50 AM36 °FLight rain. Low clouds.15 mph93%29.30 "Hg4 mi
3:20 AM34 °FLight snow. Low clouds.13 mph100%29.33 "Hg2 mi
1:50 AM34 °FLight rain. Low clouds.12 mph93%29.36 "Hg3 mi
1:20 AM34 °FLight rain. Mostly cloudy.12 mph93%29.39 "Hg2 mi
12:50 AM34 °FLight snow. Mostly cloudy.10 mph93%29.42 "Hg3 mi
12:20 AM34 °FLight rain. Low clouds.12 mph100%29.42 "Hg2 mi
11:50 PM
Sat, Mar 28
36 °FLight rain. Low clouds.14 mph93%29.45 "Hg4 mi
11:20 PM36 °FLight rain. Low clouds.16 mph93%29.47 "Hg4 mi
10:50 PM37 °FLight rain. Low clouds.18 mph93%29.50 "Hg6 mi
10:20 PM37 °FPassing clouds.21 mph93%29.53 "HgN/A
9:50 PM37 °FPassing clouds.16 mph93%29.56 "HgN/A
9:20 PM39 °FPassing clouds.15 mph81%29.56 "HgN/A
8:50 PM39 °FPartly cloudy.15 mph81%29.59 "HgN/A
8:20 PM37 °FPartly cloudy.16 mph87%29.62 "HgN/A
7:50 PM37 °FPartly cloudy.15 mph93%29.65 "HgN/A
7:20 PM37 °FPassing clouds.14 mph93%29.65 "HgN/A
6:50 PM37 °FPassing clouds.13 mph93%29.68 "HgN/A
6:20 PM37 °FChilly.13 mph93%29.71 "HgN/A
5:50 PM37 °FPartly sunny.13 mph93%29.71 "HgN/A
5:20 PM37 °FMostly cloudy.13 mph93%29.74 "HgN/A
4:50 PM39 °FLow clouds.12 mph87%29.74 "HgN/A
4:20 PM39 °FPartly sunny.13 mph87%29.77 "HgN/A
3:50 PM39 °FBroken clouds.14 mph87%29.80 "HgN/A
3:20 PM39 °FPassing clouds.13 mph81%29.80 "HgN/A
2:50 PM41 °FSunny.12 mph76%29.80 "Hg10 mi
2:20 PM41 °FSunny.13 mph70%29.83 "Hg10 mi
1:50 PM41 °FSunny.13 mph70%29.83 "Hg10 mi
1:20 PM43 °FSunny.13 mph57%29.86 "Hg10 mi
12:50 PM43 °FSunny.7 mph61%29.86 "Hg10 mi
12:20 PM41 °FSunny.8 mph70%29.86 "Hg10 mi
11:50 AM39 °FSunny.7 mph75%29.89 "Hg10 mi
11:20 AM37 °FClear.7 mph81%29.89 "HgN/A
10:50 AM36 °FSunny.7 mph87%29.89 "Hg10 mi
10:20 AM36 °FSunny.5 mph87%29.89 "Hg10 mi
9:50 AM34 °FSunny.6 mph93%29.89 "Hg10 mi
9:20 AM32 °FPassing clouds.3 mph93%29.92 "HgN/A
8:50 AM32 °FFog.3 mph93%29.92 "HgN/A
8:20 AM28 °FFog.5 mph93%29.92 "HgN/A
7:50 AM28 °FLight fog.2 mph93%29.92 "HgN/A
7:20 AM27 °FFog.2 mph100%29.92 "HgN/A
6:50 AM27 °FFog.3 mph93%29.92 "HgN/A
6:20 AM25 °FFog.3 mph100%29.92 "HgN/A
5:20 AM25 °FIce fog.3 mph100%29.92 "Hg0 mi
Weather by CustomWeather, © 2015

See weather overviewHow to use our weather pages